York, PA

3:13 PM EST on December 05, 2019 (GMT -0500)
York

Weather History for KTHV - October, 2019

Change the Weather History Date:

Tuesday, October 22, 2019

  Actual Average Record
Temperature  
Mean Temperature 56 °F -  
Max Temperature 62 °F 0 °F 80 °F (2007)
Min Temperature 46 °F - 30 °F (2002)
Degree Days  
Heating Degree Days 10    
Growing Degree Days 6 (Base 50)    
Moisture  
Dew Point 54 °F    
Average Humidity 88    
Maximum Humidity 97    
Minimum Humidity 81    
Precipitation  
Precipitation 0.42 in - - ()
Sea Level Pressure  
Sea Level Pressure 29.90 in    
Wind  
Wind Speed 6 mph ()    
Max Wind Speed 17 mph    
Max Gust Speed 23 mph    
Visibility 6.8 miles    
Events Fog , Rain    
Averages and records for this station are not official NWS values.
T = Trace of Precipitation, MM = Missing Value Source: Averaged Metar Reports

Daily Weather History Graph

Daily Weather History Graph

Search for Another Location

Airport or City:

Astronomy

Oct. 22, 2019 Rise Set
Actual Time 7:25 AM EDT 6:18 PM EDT
Civil Twilight 6:57 AM EDT 6:45 PM EDT
Nautical Twilight 6:25 AM EDT 7:17 PM EDT
Astronomical Twilight 5:54 AM EDT 7:48 PM EDT
Moon 12:32 AM EDT (10/22) 3:25 PM EDT (10/22)
Length of Visible Light 11h 48m
Length of Day
10h 53m
Last Quarter, 37% of the Moon is Illuminated
Oct 22
Last Quarter
Oct 27
New
Nov 4
First Quarter
Nov 12
Full
Nov 19
Last Quarter

Hourly Weather History & Observations

Time (EDT) Temp. Dew Point Humidity Pressure Visibility Wind Dir Wind Speed Gust Speed Precip Events Conditions
12:46 AM 57.0 °F 51.1 °F 81% 30.05 in 10.0 mi SE 8.1 mph - N/A   Overcast
12:53 AM 57.0 °F 51.1 °F 81% 30.05 in 10.0 mi ESE 8.1 mph - N/A   Overcast
1:53 AM 57.9 °F 53.1 °F 84% 30.06 in 10.0 mi SSE 9.2 mph - N/A   Overcast
2:27 AM 57.9 °F 53.1 °F 84% 30.06 in 10.0 mi SE 4.6 mph - N/A   Overcast
2:41 AM 57.9 °F 53.1 °F 84% 30.05 in 10.0 mi SSE 6.9 mph - N/A   Overcast
2:53 AM 57.9 °F 53.1 °F 84% 30.06 in 9.0 mi SSE 6.9 mph - N/A   Overcast
3:53 AM 57.9 °F 53.1 °F 84% 30.01 in 10.0 mi SE 6.9 mph - N/A   Overcast
4:13 AM 57.9 °F 53.1 °F 84% 30.01 in 10.0 mi SE 8.1 mph - N/A   Overcast
4:49 AM 57.2 °F 53.6 °F 88% 30.00 in 8.0 mi SSE 6.9 mph - N/A   Overcast
4:53 AM 57.0 °F 54.0 °F 89% 30.01 in 7.0 mi SSE 4.6 mph - N/A   Overcast
5:53 AM 57.9 °F 54.0 °F 87% 30.00 in 10.0 mi SE 5.8 mph - N/A   Overcast
6:53 AM 57.9 °F 54.0 °F 87% 29.99 in 10.0 mi SE 5.8 mph - N/A   Overcast
7:53 AM 57.9 °F 54.0 °F 87% 29.98 in 10.0 mi North - - N/A   Overcast
8:29 AM 57.9 °F 54.0 °F 87% 29.99 in 10.0 mi Variable 5.8 mph - N/A   Overcast
8:53 AM 57.9 °F 54.0 °F 87% 29.99 in 10.0 mi SE 5.8 mph - N/A   Overcast
9:23 AM 59.0 °F 54.0 °F 83% 29.98 in 10.0 mi SE 5.8 mph - N/A   Overcast
9:53 AM 59.0 °F 54.0 °F 83% 29.97 in 10.0 mi SE 9.2 mph - N/A   Overcast
10:07 AM 59.0 °F 55.0 °F 87% 29.96 in 10.0 mi SE 10.4 mph - N/A   Overcast
10:53 AM 60.1 °F 55.0 °F 83% 29.95 in 10.0 mi SE 10.4 mph - N/A   Overcast
11:31 AM 61.0 °F 55.0 °F 81% 29.92 in 10.0 mi SE 10.4 mph - N/A   Overcast
11:53 AM 61.0 °F 55.0 °F 81% 29.92 in 10.0 mi SE 10.4 mph 19.6 mph N/A   Overcast
12:53 PM 61.0 °F 55.0 °F 81% 29.87 in 10.0 mi SE 15.0 mph 20.7 mph N/A   Overcast
1:53 PM 61.0 °F 55.0 °F 81% 29.83 in 10.0 mi SE 17.3 mph 23.0 mph N/A   Overcast
2:53 PM 60.1 °F 57.0 °F 90% 29.80 in 5.0 mi SE 10.4 mph - 0.04 in Rain Rain
3:26 PM 60.1 °F 57.0 °F 90% 29.82 in 2.0 mi SW 4.6 mph - 0.08 in Rain Rain
3:31 PM 60.1 °F 57.0 °F 90% 29.82 in 1.0 mi West 4.6 mph - 0.11 in Rain Heavy Rain
3:44 PM 60.1 °F 57.0 °F 90% 29.81 in 1.0 mi SW 3.5 mph - 0.18 in Rain Rain
3:51 PM 60.8 °F 57.2 °F 88% 29.82 in 2.0 mi WSW 3.5 mph - 0.20 in Rain Rain
3:53 PM 60.1 °F 57.0 °F 90% 29.83 in 2.5 mi West 4.6 mph - 0.20 in Rain Light Rain
4:00 PM 60.1 °F 57.0 °F 90% 29.83 in 1.8 mi West 5.8 mph - 0.03 in Rain Rain
4:09 PM 60.1 °F 57.0 °F 90% 29.84 in 1.0 mi West 6.9 mph - 0.08 in Rain Heavy Rain
4:13 PM 60.1 °F 57.0 °F 90% 29.84 in 1.2 mi West 6.9 mph - 0.09 in Rain Rain
4:23 PM 59.0 °F 57.0 °F 93% 29.83 in 1.5 mi West 5.8 mph - 0.11 in Rain Rain
4:39 PM 59.0 °F 55.9 °F 90% 29.84 in 1.5 mi West 5.8 mph - 0.15 in Rain Rain
4:50 PM 59.0 °F 55.4 °F 88% 29.83 in 2.0 mi Variable 4.6 mph - 0.16 in Rain Light Rain
4:53 PM 59.0 °F 55.9 °F 90% 29.83 in 2.0 mi Variable 4.6 mph - 0.17 in Rain Light Rain
4:59 PM 59.0 °F 55.9 °F 90% 29.83 in 3.0 mi West 4.6 mph - 0.00 in Rain Light Rain
5:22 PM 59.0 °F 55.9 °F 90% 29.83 in 10.0 mi Calm Calm - 0.00 in Rain Light Rain
5:53 PM 57.9 °F 55.9 °F 93% 29.82 in 7.0 mi Calm Calm - 0.01 in Rain Light Rain
6:53 PM 57.9 °F 55.9 °F 93% 29.81 in 10.0 mi Calm Calm - 0.00 in   Overcast
7:10 PM 57.9 °F 55.9 °F 93% 29.81 in 10.0 mi Calm Calm - N/A   Overcast
7:53 PM 57.0 °F 55.0 °F 93% 29.84 in 10.0 mi West 3.5 mph - N/A   Overcast
8:09 PM 57.0 °F 55.0 °F 93% 29.84 in 10.0 mi WNW 5.8 mph - N/A   Overcast
8:20 PM 57.9 °F 55.0 °F 90% 29.84 in 10.0 mi WNW 8.1 mph - N/A   Overcast
8:42 PM 57.0 °F 55.0 °F 93% 29.84 in 10.0 mi West 9.2 mph - N/A   Overcast
8:53 PM 57.0 °F 55.0 °F 93% 29.85 in 10.0 mi West 8.1 mph - N/A   Overcast
9:17 PM 57.0 °F 54.0 °F 89% 29.84 in 10.0 mi Calm Calm - N/A   Overcast
9:53 PM 55.0 °F 52.0 °F 89% 29.86 in 10.0 mi WNW 3.5 mph - N/A   Mostly Cloudy
10:51 PM 51.8 °F 50.0 °F 94% 29.85 in 2.0 mi Calm Calm - N/A   Clear
10:53 PM 52.0 °F 50.0 °F 93% 29.86 in 2.0 mi Calm Calm - N/A   Clear
11:05 PM 51.1 °F 48.9 °F 92% 29.85 in 7.0 mi Calm Calm - N/A   Clear
11:17 PM 51.1 °F 48.9 °F 92% 29.85 in 2.0 mi Calm Calm - N/A   Clear
11:23 PM 50.0 °F 48.0 °F 93% 29.85 in 1.0 mi Calm Calm - N/A   Clear
11:32 PM 50.0 °F 48.0 °F 93% 29.85 in 0.5 mi Calm Calm - N/A Fog Fog
11:53 PM 46.9 °F 46.0 °F 97% 29.86 in 0.2 mi Calm Calm - N/A Fog Fog